User: anonymous   Login
Location: Unspecified
(0.0000°N, 0.0000°E)
Time: 17:47:09
(UTC+00:00)
Language:

SR - Orbit

View from above orbital plane
View from above orbital plane
View from above satellite
View from above satellite

Ground track
Ground track

The orbit data is extracted from the following two-line orbital elements,

1 00046U 60007B   16040.43046120  .00000374  00000-0  96299-4 0  9997
2 00046  66.6910  21.5179 0217576 237.2876 120.7090 14.48800029908729
Epoch (UTC): 09 February 2016 10:19:51
Eccentricity: 0.0217576
inclination: 66.6910°
perigee height: 575 km
apogee height: 884 km
right ascension of ascending node: 21.5179°
argument of perigee: 237.2876°
revolutions per day: 14.48800029
mean anomaly at epoch: 120.7090°
orbit number at epoch: 90872

The dashed part of the orbit path shows where the satellite is in the earth's shadow,  

DLR